Wind_Speed
14 13 14 14 14 13 12 11 10 10 9 10 9 9 9 10 12 15 18 10 11 9 4 7 8 9 7 12 9 5 2 3 1 4 3 6 5 26 18 34 25 13 31 30 30
14 13 13 13 14 14 13 12 10 10 8 7 8 8 8 9 12 20 15 11 14 9 9 11 12 10 15 13 10 4 2 1 16 9 3 6 5 18 15 12 19 28 37 35 31
14 12 11 12 13 15 15 14 12 10 9 8 7 6 5 6 9 7 7 14 13 14 12 11 15 15 16 19 13 7 3 4 4 19 7 3 4 8 28 10 28 33 33 35 30
13 12 10 11 13 15 15 15 14 11 9 7 6 5 4 4 1 1 5 6 11 12 15 16 17 20 13 10 14 3 7 6 12 12 13 3 2 13 14 25 33 33 30 32 24
12 12 11 11 12 13 15 15 14 13 9 8 6 4 3 4 11 1 9 4 13 14 17 16 15 19 10 2 10 6 8 7 11 7 14 17 13 9 6 38 32 32 29 24 19
11 12 11 11 11 12 14 14 13 12 10 7 5 3 3 5 3 4 6 4 14 19 18 18 13 18 16 4 8 9 9 13 9 8 16 14 9 18 12 29 25 28 28 23 20
11 12 11 12 12 11 13 14 14 11 10 8 5 3 7 16 4 2 9 8 12 16 17 16 18 20 14 1 16 19 13 9 5 5 8 21 12 4 15 29 29 26 24 26 20
11 11 12 13 13 12 13 14 14 11 8 7 4 6 8 4 5 10 13 6 10 9 15 13 14 21 17 10 7 6 7 5 4 3 4 4 5 4 22 29 27 28 25 25 26
9 11 12 13 13 13 13 13 13 10 8 5 3 7 11 4 13 15 14 11 8 13 11 16 18 18 12 2 3 3 3 10 1 9 5 5 2 7 9 25 25 27 24 25 25
10 11 12 13 13 13 14 14 13 9 6 5 6 10 7 7 9 7 10 14 15 15 14 14 13 5 4 4 5 14 6 6 6 4 3 2 8 15 13 10 21 27 25 25 26
11 11 12 13 13 14 10 13 8 0 7 11 11 9 15 7 3 5 9 12 15 18 8 17 2 6 10 14 14 4 11 14 9 6 2 6 2 13 17 15 13 8 27 31 28
10 12 13 14 12 10 9 9 13 13 11 19 15 15 9 7 2 10 10 9 11 6 8 2 8 11 15 5 9 10 15 7 7 13 1 4 5 9 18 7 7 8 15 32 28
12 12 13 13 10 4 8 13 8 12 9 12 18 11 10 8 13 14 13 17 8 8 10 9 13 17 16 11 10 3 2 9 9 11 4 5 4 6 5 8 13 7 9 32 35
15 14 13 9 8 7 14 9 10 11 3 1 5 4 5 6 7 16 14 15 7 10 10 9 19 14 13 12 8 5 12 9 20 8 1 5 2 4 6 8 7 15 19 26 30
19 17 11 7 9 10 10 10 11 12 5 9 4 3 4 9 4 14 10 15 13 8 7 11 11 9 9 12 11 7 13 11 14 9 4 7 2 4 4 9 13 19 19 8 33
19 12 6 5 6 4 8 12 14 2 3 2 8 7 4 13 10 16 12 13 18 10 8 10 13 7 8 2 20 24 17 5 5 1 1 8 6 4 12 27 23 30 21 10 21
12 6 2 5 2 4 8 15 3 4 3 2 3 5 1 2 7 9 7 7 5 1 5 8 9 8 5 18 19 15 6 1 1 2 1 9 8 7 23 21 29 26 27 19 24
7 3 2 1 1 4 8 5 4 11 7 3 2 8 3 6 7 8 8 7 10 9 5 5 4 4 4 8 13 14 9 6 3 1 2 3 2 5 10 26 30 31 30 26 30
8 8 11 3 1 2 5 3 3 8 11 9 9 5 5 7 4 6 8 9 9 9 3 2 7 6 9 8 8 4 6 8 7 2 3 1 2 11 14 13 27 31 30 35 33
10 13 16 6 7 3 3 6 4 6 8 11 6 7 1 4 3 3 3 7 2 8 10 7 5 7 11 6 8 3 5 2 3 5 3 5 7 5 9 7 15 27 30 30 21
9 7 9 10 6 10 4 7 3 6 6 5 7 7 4 2 7 4 9 12 18 6 6 6 1 9 6 5 6 3 4 4 4 5 4 4 4 12 18 16 10 17 31 35 29
6 4 5 8 6 8 6 2 2 1 1 4 4 4 6 6 4 5 6 4 18 16 5 8 3 6 9 6 9 7 5 6 3 8 2 4 4 12 17 17 23 18 28 35 38
9 16 10 9 4 8 3 5 2 7 8 7 7 9 7 5 4 5 3 8 12 7 4 7 5 5 9 8 7 4 6 4 4 2 6 2 5 10 15 11 25 21 30 33 37
6 3 8 15 19 11 7 4 5 5 3 5 6 9 7 5 6 5 4 2 5 5 8 8 3 1 2 2 4 6 9 11 6 2 5 6 5 10 6 7 6 16 29 38 41
4 6 19 7 3 7 6 7 5 1 5 2 2 5 8 5 8 7 2 1 10 6 7 2 4 6 9 2 3 8 8 9 11 17 4 2 9 10 6 6 4 9 21 28 36
6 7 20 19 9 3 2 4 4 10 7 7 8 10 4 7 7 7 9 3 2 5 3 5 5 7 8 11 11 10 14 13 15 22 17 7 8 5 5 17 21 19 18 11 19
6 9 9 13 10 3 3 4 9 8 4 2 5 7 7 9 15 12 14 21 4 3 1 1 1 3 4 8 8 7 15 17 12 16 6 8 6 3 4 7 9 19 28 18 13
Wind_Direction
3 4 4 4 4 3 359 349 332 324 316 308 300 290 283 274 268 267 253 218 215 227 233 199 202 174 242 257 186 175 17 149 107 203 181 332 90 134 126 131 144 144 137 138 143
5 8 13 19 19 16 10 2 350 336 326 311 302 295 289 280 274 266 267 233 207 218 213 185 208 228 241 237 187 159 122 350 183 217 51 344 344 131 115 89 137 138 145 138 147
7 9 12 14 16 16 12 8 360 350 340 328 311 298 291 287 296 275 281 218 211 224 217 189 222 232 234 240 188 181 176 121 151 166 188 155 317 258 112 169 151 135 149 141 154
9 7 4 7 9 10 8 8 4 356 345 332 318 306 286 266 40 330 346 188 195 226 211 198 239 248 243 247 176 188 123 120 131 170 165 143 131 256 231 159 141 140 145 143 147
9 8 2 357 359 3 6 5 4 2 353 340 326 301 274 268 252 318 334 236 207 217 207 203 236 240 239 218 84 80 85 99 123 134 132 153 262 216 50 144 141 141 144 141 156
7 8 6 356 353 357 1 358 355 354 355 345 336 303 260 260 358 289 330 281 207 212 207 206 231 232 262 287 128 138 127 120 92 131 95 97 313 271 133 134 146 146 145 158 172
3 4 359 357 353 349 347 346 345 337 349 345 332 293 261 237 149 351 287 308 207 210 201 210 228 253 258 111 125 138 127 109 67 59 94 106 264 107 125 156 145 146 157 169 178
356 355 350 348 351 339 333 339 340 334 331 345 346 315 263 329 253 287 230 290 182 219 197 212 250 257 282 117 67 149 121 132 15 46 30 344 202 153 178 149 150 156 176 173 146
344 346 344 340 340 333 324 325 329 322 325 329 328 316 277 267 250 245 208 211 195 207 240 249 254 254 274 246 29 13 252 109 28 16 27 349 147 342 344 153 157 167 183 159 147
332 336 337 335 330 328 320 317 312 295 298 314 245 297 274 248 230 186 191 206 194 195 231 248 250 218 251 271 219 231 152 141 132 147 9 29 335 320 354 347 170 179 168 157 154
327 329 327 330 327 325 310 327 334 304 271 244 280 265 330 103 130 204 192 224 191 205 211 224 151 217 229 225 252 163 120 123 118 142 133 166 279 316 313 327 322 237 166 153 155
328 322 322 326 324 323 312 309 327 330 312 303 243 269 282 321 196 221 176 214 202 190 223 169 231 235 241 142 58 329 126 86 98 133 97 158 265 284 283 293 312 296 183 158 161
329 322 320 322 321 311 296 292 344 327 296 302 232 232 217 233 221 170 189 216 196 224 197 213 239 219 240 215 129 240 322 169 147 132 70 118 291 306 231 292 293 278 243 161 162
327 321 316 314 310 291 293 347 338 329 299 204 228 131 192 226 268 176 202 205 192 210 240 226 252 225 228 252 166 94 54 186 130 126 120 197 285 278 230 270 286 267 289 174 171
326 318 310 287 289 301 341 354 318 311 332 179 110 145 237 209 162 159 208 241 262 237 181 244 242 255 222 233 105 133 120 163 146 111 134 193 204 240 263 256 253 248 255 181 177
329 326 310 266 249 9 330 333 311 248 233 212 164 176 198 244 242 152 182 240 280 288 269 241 257 248 254 138 104 117 130 112 58 51 110 195 207 197 198 207 218 229 229 219 205
333 337 303 267 313 334 343 306 310 249 224 316 155 151 266 4 198 163 182 220 234 207 282 256 261 274 177 101 123 107 140 312 226 191 354 338 194 255 203 216 217 212 202 213 209
316 294 251 230 263 309 333 297 256 321 33 216 89 95 44 106 274 163 171 224 241 254 265 190 255 223 174 190 156 160 168 159 265 171 122 320 251 259 292 210 201 214 212 199 200
285 300 287 185 23 119 300 289 252 355 354 339 51 19 59 291 281 177 202 207 228 227 219 238 241 217 194 211 156 209 220 215 99 71 96 124 344 300 20 175 198 207 215 208 202
294 301 289 267 215 268 268 268 22 3 345 331 16 179 5 316 338 128 343 325 347 29 27 358 359 293 202 157 285 182 272 56 37 142 201 133 146 264 304 202 186 200 210 209 198
315 306 298 172 195 235 252 266 62 73 2 323 326 35 330 345 358 29 36 337 2 15 51 357 23 294 126 130 213 284 293 302 146 138 144 162 178 206 222 190 191 215 214 204 199
308 282 258 168 213 222 244 7 309 231 220 327 274 352 14 331 45 65 8 324 350 353 25 0 293 322 290 261 192 216 226 210 131 289 155 133 239 185 199 202 180 225 216 209 199
322 281 274 200 260 290 153 171 220 22 11 4 351 3 350 334 125 168 212 326 343 46 33 327 337 346 336 359 5 11 332 316 288 272 276 171 251 171 194 228 196 209 202 199 200
318 285 215 205 237 257 274 256 143 145 233 33 324 326 319 340 326 185 153 356 357 93 23 342 306 323 248 321 300 310 335 340 4 306 256 247 170 178 201 246 282 266 206 187 196
251 276 329 302 249 346 46 5 5 46 66 347 254 268 23 357 26 5 141 140 1 341 359 0 292 307 309 253 304 313 325 309 20 2 311 273 151 129 149 151 101 52 205 184 183
272 339 317 303 315 308 113 207 353 66 46 357 8 357 359 7 43 25 4 92 221 353 36 357 326 355 306 7 3 358 15 23 38 19 353 27 66 41 229 113 68 53 37 171 165
317 309 335 290 305 249 246 104 85 67 115 231 360 332 2 20 352 346 322 309 132 121 285 7 90 356 306 28 353 60 15 21 57 39 13 12 340 7 59 49 98 92 79 15 127
Height
1515 1513 1511 1509 1507 1506 1504 1503 1501 1501 1500 1499 1499 1498 1498 1498 1499 1498 1496 1499 1500 1501 1503 1505 1507 1508 1509 1509 1510 1511 1520 1522 1517 1516 1516 1514 1515 1513 1518 1520 1525 1527 1533 1538 1543
1515 1513 1511 1510 1508 1506 1504 1502 1501 1499 1498 1497 1497 1497 1496 1496 1496 1493 1494 1495 1497 1499 1502 1504 1507 1507 1508 1506 1508 1510 1518 1515 1515 1515 1516 1514 1516 1517 1522 1527 1529 1530 1536 1539 1542
1516 1514 1512 1511 1509 1507 1505 1503 1501 1499 1498 1497 1496 1495 1495 1495 1493 1489 1489 1492 1495 1498 1500 1503 1505 1507 1505 1503 1505 1505 1512 1507 1510 1512 1519 1518 1519 1515 1522 1529 1525 1528 1535 1540 1544
1516 1514 1513 1511 1510 1508 1506 1504 1501 1499 1497 1496 1495 1494 1494 1495 1494 1489 1489 1490 1493 1496 1499 1500 1502 1504 1502 1500 1500 1508 1505 1508 1512 1516 1521 1522 1525 1524 1522 1523 1525 1528 1536 1540 1544
1517 1515 1513 1512 1510 1508 1506 1504 1502 1499 1497 1496 1495 1494 1494 1494 1488 1488 1489 1489 1492 1494 1496 1499 1500 1500 1499 1494 1499 1504 1506 1510 1512 1517 1522 1521 1521 1521 1519 1523 1527 1529 1537 1541 1544
1518 1516 1514 1512 1510 1508 1507 1504 1502 1500 1497 1496 1495 1494 1494 1494 1486 1487 1488 1489 1489 1492 1495 1497 1497 1497 1496 1497 1497 1502 1508 1512 1515 1520 1526 1526 1527 1527 1524 1524 1529 1532 1537 1542 1543
1518 1516 1514 1512 1510 1508 1506 1504 1502 1500 1498 1496 1495 1494 1493 1486 1487 1489 1487 1488 1489 1491 1494 1495 1494 1498 1496 1496 1498 1503 1511 1517 1519 1523 1528 1529 1531 1521 1520 1526 1529 1534 1538 1542 1544
1518 1516 1514 1512 1510 1508 1506 1504 1502 1500 1498 1497 1495 1494 1489 1486 1486 1487 1487 1487 1489 1492 1493 1493 1495 1497 1498 1498 1503 1508 1513 1524 1525 1525 1529 1530 1532 1522 1521 1524 1529 1534 1537 1541 1544
1518 1516 1513 1511 1510 1508 1505 1503 1501 1499 1498 1497 1497 1495 1488 1485 1484 1483 1486 1488 1490 1493 1493 1493 1494 1496 1496 1500 1513 1514 1526 1524 1526 1527 1528 1529 1526 1521 1523 1522 1528 1533 1536 1539 1544
1517 1515 1513 1511 1509 1507 1505 1502 1500 1499 1497 1496 1496 1499 1484 1480 1481 1482 1485 1487 1489 1492 1493 1493 1493 1496 1498 1505 1520 1527 1523 1524 1529 1531 1533 1535 1533 1524 1526 1527 1527 1531 1534 1538 1543
1517 1515 1512 1510 1508 1506 1504 1502 1501 1499 1496 1491 1489 1485 1482 1481 1483 1484 1485 1486 1489 1490 1494 1490 1497 1506 1499 1494 1492 1496 1505 1519 1527 1532 1536 1537 1537 1528 1526 1529 1529 1529 1531 1536 1542
1516 1513 1511 1509 1507 1505 1504 1502 1499 1500 1493 1487 1484 1485 1483 1482 1482 1483 1485 1486 1487 1491 1489 1494 1503 1490 1485 1490 1492 1501 1514 1524 1530 1528 1535 1538 1539 1538 1527 1531 1532 1531 1530 1533 1539
1515 1512 1510 1508 1506 1505 1504 1501 1498 1496 1495 1482 1481 1481 1482 1483 1480 1481 1485 1484 1486 1490 1489 1498 1483 1481 1482 1485 1491 1512 1507 1519 1520 1527 1536 1538 1540 1533 1529 1530 1531 1531 1533 1530 1537
1513 1510 1508 1507 1507 1504 1500 1498 1497 1498 1499 1484 1480 1481 1481 1481 1479 1479 1481 1484 1483 1488 1485 1486 1474 1477 1478 1480 1480 1509 1506 1515 1520 1524 1542 1538 1549 1536 1531 1532 1533 1535 1535 1530 1534
1511 1508 1507 1506 1505 1504 1501 1498 1499 1498 1523 1479 1477 1479 1479 1480 1474 1479 1479 1482 1482 1480 1482 1485 1474 1475 1477 1473 1477 1505 1512 1517 1518 1523 1537 1542 1547 1534 1532 1534 1530 1532 1533 1531 1534
1507 1505 1504 1505 1504 1504 1501 1500 1500 1507 1510 1477 1474 1477 1479 1476 1474 1477 1479 1480 1478 1477 1473 1472 1466 1465 1467 1464 1477 1498 1509 1523 1525 1525 1542 1527 1535 1537 1533 1517 1522 1524 1528 1528 1536
1506 1504 1504 1504 1505 1503 1501 1500 1509 1510 1475 1479 1475 1474 1476 1476 1475 1474 1479 1482 1486 1489 1487 1472 1470 1463 1462 1486 1481 1492 1509 1537 1541 1536 1540 1526 1533 1520 1513 1511 1511 1511 1523 1528 1532
1506 1504 1504 1504 1504 1504 1501 1502 1511 1483 1477 1470 1471 1476 1481 1478 1477 1472 1479 1485 1475 1477 1487 1491 1496 1466 1463 1470 1487 1495 1500 1529 1535 1535 1534 1530 1533 1518 1505 1504 1509 1516 1522 1529 1532
1505 1504 1502 1501 1503 1504 1504 1509 1497 1487 1478 1477 1475 1486 1487 1478 1476 1473 1475 1477 1470 1467 1481 1484 1483 1458 1460 1461 1469 1481 1500 1479 1521 1525 1531 1531 1530 1518 1502 1502 1511 1516 1522 1523 1526
1505 1504 1498 1498 1502 1503 1504 1503 1488 1483 1481 1479 1486 1483 1487 1480 1481 1476 1478 1471 1464 1464 1463 1472 1491 1462 1457 1459 1463 1470 1469 1495 1503 1536 1543 1533 1541 1537 1515 1508 1508 1512 1515 1520 1520
1509 1505 1495 1497 1501 1502 1507 1494 1483 1483 1484 1483 1484 1486 1481 1483 1483 1482 1484 1477 1471 1467 1467 1471 1480 1477 1458 1469 1477 1478 1484 1482 1487 1498 1525 1530 1527 1501 1499 1493 1504 1506 1510 1511 1517
1509 1506 1495 1498 1501 1496 1495 1484 1485 1483 1482 1481 1479 1478 1482 1480 1484 1493 1492 1484 1477 1474 1483 1479 1480 1495 1481 1461 1458 1464 1473 1479 1507 1508 1495 1509 1509 1480 1485 1485 1480 1489 1497 1506 1509
1509 1503 1494 1496 1501 1491 1484 1483 1484 1484 1485 1485 1484 1483 1480 1484 1498 1492 1486 1482 1479 1481 1488 1485 1493 1507 1490 1476 1466 1475 1472 1473 1479 1482 1497 1502 1506 1475 1482 1486 1479 1482 1488 1498 1505
1511 1502 1492 1491 1489 1487 1485 1482 1484 1485 1486 1487 1486 1484 1482 1484 1480 1492 1486 1483 1483 1483 1484 1483 1491 1500 1516 1496 1485 1488 1480 1477 1486 1501 1495 1486 1484 1482 1487 1486 1487 1487 1485 1489 1498
1509 1499 1495 1494 1485 1484 1482 1485 1483 1486 1486 1487 1487 1485 1488 1492 1491 1490 1489 1485 1486 1487 1485 1486 1500 1493 1489 1481 1480 1484 1482 1480 1492 1496 1496 1476 1478 1481 1484 1485 1487 1482 1483 1489 1493
1509 1503 1497 1492 1483 1484 1485 1485 1485 1487 1490 1493 1493 1488 1487 1494 1492 1497 1491 1491 1491 1487 1488 1491 1504 1497 1498 1486 1486 1490 1486 1485 1486 1495 1490 1476 1485 1484 1483 1476 1479 1485 1487 1493 1494
1508 1504 1502 1492 1486 1485 1484 1483 1487 1489 1492 1493 1494 1493 1493 1492 1491 1491 1490 1488 1486 1490 1494 1495 1500 1503 1509 1495 1495 1504 1505 1502 1499 1501 1509 1505 1496 1487 1483 1484 1482 1488 1491 1491 1501